Location: Invercargill
(46.4000°S, 168.3500°E)
Time: 17:47:32
(UTC+13:00)

Cosmos 724 - Pass Details

Date: 24 January 2019
Orbit: 858 x 937 km, 65.6° (Epoch: 22 October)

Event Time Altitude Azimuth Distance (km) Brightness Sun altitude
Rises 22:28:09 0° 333° (NNW) 3,520 7.3 -9.0°
Reaches altitude 10° 22:30:40 10° 335° (NNW) 2,574 6.6 -9.4°
Maximum altitude 22:36:37 74° 58° (ENE) 930 4.3 -10.1°
Drops below altitude 10° 22:42:31 10° 142° (SE) 2,550 6.8 -10.9°
Sets 22:45:01 0° 143° (SE) 3,486 7.5 -11.2°
